Flag for Cuba Weather past 2 weeks in Camagüey, Cuba

Now
79 °F

Passing clouds.


Feels Like: 81 °F
Forecast: 72 / 97 °F
Wind: 7 mph from East

Location: Camaguey Aeropuerto

Current Time: Apr 25, 2015 at 10:24:58 PM

Latest Report: Apr 25, 2015 at 9:51 PM


Visibility: 6 mi

Pressure: 29.98 "Hg

Humidity: 70%

Dew point: 68 °F

Location of CamagüeyLocation

Historic Weather in Camagüey — Graph

°F

Camagüey temperature yesterday

Maximum temperature yesterday: 93 °F (at 1:50 PM)
Minimum temperature yesterday: 72 °F (at 2:50 AM)
Average temperature yesterday: 81 °F

Past Weeks' High & Low Weather Summary

 TemperatureHumidityPressure
High93 °F (Apr 17, 3:50 PM)94% (Apr 12, 5:51 AM)30.12 "Hg (Apr 12, 5:51 AM)
Low70 °F (Apr 13, 5:50 AM)30% (Apr 17, 1:50 PM)29.86 "Hg (Apr 25, 5:50 PM)
Average80 °F69%30.02 "Hg
* Reported Apr 10 8:50 PM — Apr 25 8:52 PM, Camagüey, Weather by CustomWeather, © 2015

Note: Actual official high and low records may vary slightly from our data, if they occured in-between our weather recording intervals... More about our weather records

Advertising

Camagüey weather history for previous 24 hours

 ConditionsComfort  
Time TempWeatherWind HumidityBarometerVisibility
8:52 PM
Sat, Apr 25
81 °FPassing clouds.9 mph66%29.95 "Hg6 mi
7:52 PM84 °FScattered clouds.13 mph58%29.95 "Hg6 mi
6:52 PM86 °FScattered clouds.10 mph49%29.92 "Hg6 mi
5:50 PM90 °FPassing clouds.15 mph46%29.86 "Hg6 mi
4:50 PM91 °FScattered clouds.13 mph44%29.89 "Hg6 mi
3:50 PM93 °FScattered clouds.7 mph41%29.89 "Hg6 mi
2:50 PM93 °FScattered clouds.7 mph36%29.89 "Hg6 mi
1:50 PM93 °FScattered clouds.5 mph36%29.92 "Hg6 mi
12:50 PM90 °FScattered clouds.2 mph43%29.95 "Hg6 mi
11:50 AM88 °FScattered clouds.6 mph46%29.98 "Hg6 mi
10:50 AM86 °FPassing clouds.3 mph52%30.01 "Hg6 mi
9:56 AM84 °FPassing clouds.7 mph55%30.01 "Hg6 mi
8:50 AM79 °FPassing clouds.6 mph74%29.98 "Hg6 mi
7:50 AM75 °FPassing clouds.3 mph89%29.98 "Hg6 mi
6:50 AM73 °FPassing clouds.6 mph89%29.98 "Hg5 mi
5:50 AM72 °FClear.3 mph88%29.95 "Hg6 mi
4:50 AM72 °FClear.5 mph88%29.95 "Hg6 mi
3:50 AM72 °FClear.3 mph88%29.95 "Hg6 mi
2:50 AM73 °FClear.1 mph83%29.98 "Hg6 mi
1:50 AM73 °FClear.2 mph83%29.98 "Hg6 mi
12:50 AM75 °FClear.6 mph78%30.01 "Hg6 mi
11:50 PM
Fri, Apr 24
75 °FClear.3 mph78%30.01 "Hg6 mi
10:50 PM77 °FPassing clouds.3 mph74%30.01 "Hg6 mi
Weather by CustomWeather, © 2015

See weather overviewHow to use our weather pages